GFSSGP_sfc_temp_231.txt.gz
Temp
80 82 84 83 80 79 70 71 74 71 71 77 79 75 73 74 72 68 80 84 84 87 86 85 80 80 79 79 79 79 79 79 79 80 80 79 79 80 80 80 80 81 81 81 81 81 81 81 80
84 82 85 85 75 70 69 73 72 75 77 79 78 77 74 72 78 79 80 84 82 85 85 87 79 79 79 79 79 79 79 79 79 79 79 79 79 80 80 80 80 81 81 81 81 81 81 81 80
84 85 86 82 73 68 71 74 75 75 78 78 76 78 77 75 77 80 85 84 86 86 86 84 79 79 79 79 78 78 79 79 79 80 80 79 79 79 79 80 80 81 81 81 81 81 80 80 80
87 87 85 78 73 74 77 77 77 76 77 79 78 75 78 82 80 82 83 84 85 86 87 82 79 79 79 79 78 78 79 79 79 80 80 80 79 79 79 79 80 81 81 81 81 80 80 80 79
87 86 77 73 71 75 79 79 80 78 78 79 79 75 77 81 83 82 81 84 83 84 86 86 79 79 79 79 79 78 79 78 79 79 80 80 79 79 79 79 80 80 81 81 80 80 79 79 79
85 84 73 69 71 76 80 79 78 77 78 79 77 78 82 83 82 82 83 83 85 83 84 86 80 79 79 79 79 78 78 78 78 78 79 79 79 79 79 79 79 80 80 80 80 79 79 78 78
81 79 70 70 70 74 78 80 79 79 78 79 83 78 82 82 84 82 84 84 86 84 84 85 86 82 79 78 78 78 78 78 78 78 78 78 78 78 78 78 79 79 79 79 79 79 78 78 78
81 81 69 70 70 73 79 81 82 81 79 85 85 80 81 84 84 83 83 84 83 86 85 84 84 85 84 82 78 78 78 78 78 78 78 78 78 78 78 77 78 78 79 79 78 78 78 78 77
79 77 70 71 72 76 81 81 84 86 84 83 82 82 85 84 83 82 80 83 84 83 80 80 83 84 85 86 82 79 79 78 78 79 78 79 86 85 83 81 78 78 78 78 78 78 78 78 78
82 76 72 77 78 79 80 81 82 82 80 81 81 80 82 83 83 80 80 83 80 81 82 81 81 81 84 86 85 83 83 86 85 85 83 85 84 84 85 82 78 78 78 78 78 78 78 79 88
77 75 76 78 80 82 81 81 82 81 78 82 83 83 81 83 82 83 85 84 85 84 84 85 82 78 83 83 81 82 83 79 79 81 82 83 85 84 85 86 86 85 81 86 85 86 87 87 87
77 77 79 80 80 81 80 82 80 81 80 86 86 83 82 83 84 83 84 85 83 85 85 84 83 79 78 81 83 82 83 82 82 80 80 81 83 82 83 86 86 84 86 85 85 87 86 85 85
79 78 78 79 80 80 82 78 79 75 77 82 81 78 80 83 85 85 82 83 84 82 81 82 81 78 77 76 77 78 79 80 80 81 79 81 81 79 81 82 84 84 85 85 85 85 85 86 86
77 77 77 78 78 79 78 74 77 74 75 80 78 78 78 79 82 83 80 81 80 78 78 77 77 76 78 75 75 75 77 77 79 79 79 78 79 76 79 80 82 83 84 85 84 85 85 85 86
77 74 78 76 75 75 78 69 65 70 75 73 73 75 77 82 80 79 82 79 77 75 73 73 74 75 74 74 75 75 78 77 77 77 76 77 77 76 76 79 80 81 81 82 83 82 82 82 84
73 72 69 75 75 76 77 63 66 69 70 69 69 71 72 76 82 82 79 76 73 75 72 72 75 74 73 73 74 75 75 76 76 76 76 76 76 74 76 78 78 78 80 75 78 81 82 82 83
70 65 66 68 74 73 75 64 66 68 68 66 67 69 70 72 74 74 77 75 73 73 73 72 72 73 72 71 73 73 73 75 75 75 76 74 75 75 74 74 75 75 78 77 72 74 75 80 82
64 64 64 65 70 71 65 61 65 67 67 65 66 67 68 69 68 70 71 72 73 73 72 71 72 70 70 72 72 73 74 75 75 75 76 74 76 74 74 74 72 73 75 76 75 73 73 75 79
67 65 64 66 69 66 61 60 62 65 67 66 65 65 66 66 70 71 71 72 72 71 71 70 71 69 71 74 74 75 75 74 75 76 74 74 76 75 73 76 73 73 72 70 71 73 73 77 79
66 63 62 66 68 67 60 58 62 63 62 63 64 64 65 67 69 70 71 72 72 71 71 70 70 69 70 73 72 73 74 75 76 75 73 73 74 75 75 72 72 70 73 69 69 69 71 71 77
63 62 61 62 64 64 61 57 59 62 64 65 66 66 66 65 66 67 68 69 72 72 71 72 71 70 71 71 72 72 72 71 73 73 73 74 72 73 73 73 72 71 72 71 69 69 68 69 73
60 65 63 62 60 57 60 53 55 59 60 62 64 66 66 67 69 69 69 69 69 69 69 68 67 69 71 70 69 67 69 69 74 73 74 72 71 72 72 72 72 71 73 69 70 71 69 68 68
61 63 60 59 59 56 56 54 54 58 56 59 62 64 65 66 66 67 68 69 71 71 70 69 69 70 69 69 69 70 68 71 71 71 69 69 69 70 71 70 70 70 73 70 68 68 67 70 68
63 61 58 56 57 50 53 53 53 56 57 59 62 63 64 66 67 68 69 70 69 71 71 70 68 66 68 68 67 66 65 65 67 68 68 71 73 72 70 70 69 69 69 69 69 67 67 66 67
64 58 51 48 49 48 53 51 53 56 59 60 59 60 62 64 66 67 67 69 68 69 69 69 69 66 68 68 68 67 65 64 64 65 67 67 70 71 69 68 67 69 68 68 67 66 66 66 66
56 55 50 39 43 48 54 48 53 58 59 60 60 61 62 64 66 66 67 67 69 68 67 67 67 66 68 68 67 66 65 67 66 67 66 67 69 70 70 68 67 66 67 67 66 67 67 66 66
55 51 54 46 45 43 51 50 55 58 58 59 59 60 61 62 63 65 67 66 65 65 65 65 65 66 66 66 65 64 64 64 64 64 65 67 66 68 67 67 66 66 66 65 64 66 63 64 64
59 58 48 49 37 37 46 46 50 52 55 55 56 58 59 62 64 65 65 64 65 66 66 67 66 65 66 65 65 64 63 64 64 64 62 64 66 65 65 65 65 65 65 64 63 64 64 62 63
55 53 50 49 48 39 38 48 57 55 55 56 58 59 60 61 63 64 65 65 65 66 67 65 65 65 64 64 63 62 61 62 62 62 62 63 64 65 65 65 65 64 63 63 61 61 61 61 61
56 53 51 43 41 46 42 43 58 58 57 56 56 59 61 61 62 63 64 64 64 64 64 63 63 62 63 62 61 59 58 59 59 59 60 61 61 64 64 64 63 63 62 62 61 60 61 60 60

GFSSGP_sfc_temp_234.txt.gz
Temp
84 92 98 94 84 94 80 81 87 83 83 87 88 83 80 82 78 72 88 92 94 96 95 90 80 80 80 80 80 80 80 80 80 80 80 80 80 80 80 80 81 81 82 81 81 81 81 81 81
98 93 96 95 82 76 77 85 84 87 88 89 87 84 80 78 85 86 90 91 91 95 94 94 79 80 80 80 79 79 80 80 80 80 80 80 80 80 80 80 81 81 82 82 82 81 81 81 81
96 97 95 93 88 71 74 84 87 87 88 87 85 86 84 82 86 88 93 94 94 95 96 90 80 80 80 79 79 79 79 80 80 80 80 80 80 80 80 80 81 81 82 82 82 81 81 81 81
97 98 98 85 78 83 85 87 88 86 88 90 88 85 87 91 89 90 92 94 96 99 97 83 79 79 79 79 79 79 79 80 80 80 80 80 80 80 80 80 81 81 82 82 81 81 81 81 80
101 99 89 84 81 85 88 90 90 87 88 89 88 85 85 89 90 90 89 91 94 96 96 93 80 79 80 80 79 79 79 79 80 80 80 81 80 80 80 81 81 81 81 81 81 81 80 80 80
95 97 83 79 81 85 89 90 89 88 88 90 88 88 88 92 90 91 93 92 93 94 95 91 81 79 79 79 79 79 79 79 80 80 80 80 80 80 80 80 80 81 81 81 81 80 80 79 79
93 90 84 82 81 83 86 91 88 89 88 88 93 86 91 91 92 94 95 95 96 95 94 93 91 84 79 79 79 79 78 79 79 79 79 79 80 80 80 80 80 80 80 80 80 80 79 79 79
97 94 82 84 81 81 87 90 92 90 88 94 94 88 88 94 94 95 97 97 96 92 95 95 92 94 91 89 79 79 79 79 78 78 78 78 79 79 79 79 78 80 80 79 79 79 79 79 78
95 86 82 81 82 84 90 88 92 94 91 91 93 93 93 95 95 94 94 95 94 91 95 95 96 93 93 93 87 80 79 79 79 80 79 79 91 91 90 86 80 79 79 79 79 79 78 78 78
92 88 82 88 89 88 90 89 89 88 88 89 91 94 94 93 93 91 91 94 92 94 94 95 94 92 93 93 89 90 91 92 90 91 88 92 94 93 92 87 79 79 79 79 79 78 78 79 92
91 84 88 88 90 91 89 89 91 88 84 90 90 93 94 93 92 94 95 96 98 97 97 96 91 90 94 93 93 93 94 91 90 89 88 90 92 92 93 94 93 90 82 92 88 88 88 92 95
84 88 89 89 89 89 87 91 86 86 84 91 94 94 95 94 96 95 96 98 96 95 94 95 93 89 89 92 91 91 94 93 92 90 88 89 90 90 88 90 91 91 93 92 92 95 93 93 92
87 86 88 89 90 89 91 86 85 83 87 92 92 91 92 95 96 98 95 93 92 92 89 91 88 86 85 85 86 84 87 91 90 92 88 92 91 87 89 89 91 91 93 94 93 94 93 93 93
87 87 86 88 88 87 85 83 85 82 87 88 88 88 91 91 93 96 95 91 88 85 86 85 86 84 86 84 83 85 85 83 86 88 87 86 89 86 90 90 90 91 92 93 93 93 93 93 95
89 83 86 85 85 82 88 78 75 81 85 84 85 87 88 90 91 93 93 89 86 84 82 82 82 84 82 82 85 85 88 88 86 84 82 83 84 83 83 88 89 90 88 89 91 91 91 91 93
82 82 78 83 84 82 83 70 76 81 82 81 82 84 85 86 86 86 90 88 84 84 80 80 84 83 81 80 84 86 86 88 87 86 86 83 83 82 83 86 85 85 87 89 88 88 89 91 92
80 74 74 76 83 82 82 72 75 79 78 77 80 81 82 82 81 81 84 84 83 81 81 79 81 81 80 78 81 82 81 86 86 87 87 82 84 83 82 84 83 81 85 86 85 85 84 85 88
72 72 74 73 78 80 76 72 74 77 77 76 78 79 79 78 77 79 81 81 82 81 80 78 80 77 77 81 79 84 84 85 87 86 85 82 86 82 82 84 80 81 83 83 81 78 83 83 84
77 74 72 75 77 75 73 71 71 74 76 76 77 77 77 77 79 80 80 81 80 79 78 78 77 76 81 83 84 83 85 84 86 87 84 83 84 84 81 84 81 81 80 76 77 80 80 82 85
75 72 72 75 75 75 72 68 70 72 72 73 75 75 76 78 78 78 79 80 79 78 78 78 77 77 81 84 82 83 83 85 85 85 81 81 81 81 81 78 80 78 81 76 75 75 78 82 83
72 70 69 69 73 75 72 68 67 70 73 73 75 76 77 76 76 77 77 77 78 76 75 75 75 75 77 76 81 80 80 79 80 82 82 82 80 80 79 79 78 77 78 81 75 76 73 76 80
68 72 71 70 68 65 71 62 66 69 68 70 72 74 75 75 77 77 78 77 77 77 78 77 76 75 74 72 72 72 74 75 79 78 80 79 78 78 78 77 78 76 81 77 77 80 74 73 75
68 72 70 69 67 67 68 62 66 68 66 68 70 71 73 74 75 75 77 77 79 79 79 78 76 75 75 74 73 74 70 73 78 78 75 74 75 77 77 77 76 75 77 76 74 73 73 76 74
73 70 70 68 68 58 65 62 67 67 67 68 70 71 71 73 75 76 77 78 78 80 79 78 75 74 75 75 73 70 68 70 68 70 68 75 78 80 78 76 75 75 75 75 75 73 72 72 72
72 67 59 57 57 56 64 60 64 66 67 69 68 70 71 73 74 74 75 76 76 76 76 76 75 72 74 73 73 73 70 69 68 70 73 72 73 76 76 76 73 74 73 75 74 72 72 72 72
65 64 57 45 51 57 66 55 62 68 68 69 70 70 71 72 75 74 75 75 75 74 73 73 73 71 73 72 72 72 71 72 72 71 72 72 73 74 74 74 74 72 74 73 72 73 74 72 72
64 62 64 55 59 54 64 62 64 66 66 67 68 68 69 70 71 72 74 74 73 73 72 72 72 72 72 71 70 70 70 69 69 67 68 70 70 72 72 73 71 70 70 71 71 71 70 70 70
66 67 56 60 42 45 59 58 60 60 63 66 65 67 68 70 71 73 73 72 73 73 73 73 73 71 71 71 71 70 69 69 68 67 65 66 67 68 68 69 68 66 67 68 68 69 70 68 70
64 63 60 58 55 47 47 57 65 63 65 64 66 68 68 69 70 71 72 73 73 73 74 72 71 71 70 70 69 68 67 66 65 64 65 65 65 65 66 66 67 66 63 64 65 66 67 67 67
65 62 59 51 49 55 53 51 67 66 67 66 64 66 69 69 70 72 72 72 71 71 71 70 69 69 69 69 65 63 61 61 60 59 59 61 62 63 62 63 65 64 64 63 63 65 67 67 66

GFSSGP_sfc_temp_237.txt.gz
Temp
86 95 101 100 86 86 78 81 93 87 86 95 95 90 86 88 81 71 94 97 102 100 95 93 80 81 81 81 81 80 80 80 80 80 80 80 80 81 81 81 81 82 82 82 82 81 81 81 81
102 103 101 97 79 72 71 89 82 90 94 96 95 91 86 81 90 91 92 96 102 101 97 95 80 80 80 80 80 80 80 80 80 80 80 80 80 81 81 81 82 82 82 82 82 82 81 81 81
95 104 95 92 85 72 77 74 91 94 96 95 92 93 90 84 91 93 97 97 97 97 100 87 80 80 80 80 80 80 80 80 80 80 80 80 80 80 80 81 81 82 82 82 82 82 81 81 81
103 102 99 88 79 75 83 71 94 93 95 96 95 86 91 97 93 97 98 100 101 103 99 84 80 80 80 80 80 80 80 80 80 81 81 81 81 80 80 81 81 82 82 82 82 82 81 81 81
104 100 89 86 79 88 94 96 95 92 93 93 95 87 86 93 96 96 95 98 99 103 101 93 80 80 80 80 80 80 80 80 80 81 81 81 81 81 81 81 81 82 82 82 82 81 81 80 80
96 100 85 81 78 89 94 96 95 94 95 90 87 92 90 97 95 96 97 97 99 98 98 91 81 80 80 80 80 80 80 80 80 80 81 81 81 81 81 81 81 81 82 82 82 81 80 80 80
93 92 86 87 86 87 91 96 93 87 91 75 98 89 88 95 97 100 100 100 100 100 99 93 92 85 80 79 79 79 79 79 80 80 80 80 80 80 80 80 80 81 81 81 81 80 80 80 79
99 96 87 88 87 84 93 94 96 93 89 100 101 89 68 76 99 101 102 101 99 98 100 98 93 93 91 90 79 79 79 79 79 79 79 79 80 80 79 79 79 80 80 80 80 80 80 79 79
103 88 85 86 86 88 95 93 97 99 95 96 98 98 98 96 99 100 100 100 91 94 100 100 99 97 96 95 87 80 80 79 79 80 79 80 91 91 88 84 84 80 80 80 79 79 79 79 79
95 89 87 95 94 92 94 94 94 93 92 92 95 100 100 99 97 95 96 91 91 95 100 100 99 97 98 97 90 89 90 90 90 90 86 86 90 93 92 87 81 80 79 79 79 79 79 80 90
96 88 92 91 95 96 94 92 95 93 87 91 91 96 98 98 96 99 99 97 96 99 99 101 95 94 97 98 94 94 94 93 91 91 90 89 89 90 93 94 91 87 80 87 85 85 86 90 93
88 93 93 93 93 93 91 95 90 90 89 96 97 98 99 97 99 98 100 97 101 81 99 99 96 93 95 96 95 95 95 93 93 92 89 88 91 91 90 92 91 92 93 88 85 93 89 91 93
90 90 92 93 93 94 94 91 89 88 94 97 97 96 96 98 99 100 100 98 96 96 95 97 95 92 90 88 90 91 92 94 92 92 89 91 90 87 90 90 92 94 95 95 94 75 75 87 85
92 91 91 93 93 92 89 87 90 88 93 93 93 93 95 95 96 97 99 98 94 89 90 91 90 87 90 88 86 87 90 89 92 90 87 88 88 85 89 90 92 92 94 94 93 93 91 77 84
92 86 89 89 90 88 91 83 81 88 91 89 90 92 93 94 94 91 93 94 90 89 86 85 85 86 86 85 88 89 91 92 90 88 84 85 84 84 83 89 90 90 89 90 92 90 91 93 94
87 88 81 88 88 88 88 76 82 88 88 86 87 89 90 89 89 88 91 91 90 88 84 84 89 86 84 84 88 90 89 90 90 90 89 87 87 83 84 87 86 85 87 89 89 89 88 89 90
84 77 79 80 88 87 86 78 82 86 85 83 85 86 87 86 85 85 87 88 88 86 84 82 83 83 82 82 85 86 83 88 89 89 90 85 87 87 84 85 83 81 86 86 86 85 84 85 86
77 78 79 78 84 85 83 80 81 84 84 82 83 84 84 83 82 84 85 85 86 85 83 81 83 80 80 84 82 87 86 87 88 89 87 86 88 86 83 86 82 81 84 83 81 78 82 83 84
82 79 77 81 84 80 80 79 80 81 83 81 82 81 81 81 84 84 84 84 83 82 81 81 80 79 82 84 85 85 85 85 86 87 86 85 86 86 82 84 84 83 82 78 78 79 78 82 84
81 78 78 81 83 79 80 77 79 80 79 80 81 79 80 82 82 82 82 82 81 80 80 79 79 78 80 84 82 82 83 86 86 86 84 83 83 83 82 80 80 81 80 80 78 76 77 80 84
79 75 76 74 80 82 77 75 76 78 79 79 80 81 81 79 80 80 81 81 82 80 79 78 78 77 77 77 80 81 82 80 81 80 77 81 83 82 80 80 79 78 79 80 79 77 75 76 80
71 79 76 75 73 68 78 64 72 75 75 76 77 78 80 79 80 81 81 80 81 82 82 80 78 77 79 76 72 72 73 72 75 78 79 79 81 80 79 78 78 78 79 77 79 80 76 76 75
74 78 76 74 71 71 73 68 72 75 72 74 76 77 78 80 80 80 80 81 83 82 83 82 80 78 77 77 75 75 74 77 79 78 73 75 76 78 80 78 78 76 78 77 77 76 74 77 76
78 76 76 75 73 62 71 70 69 73 73 76 78 77 77 79 80 81 82 82 82 83 82 81 78 76 76 76 75 73 72 72 72 73 73 75 78 80 76 79 78 76 75 75 76 76 74 73 73
77 71 61 59 60 60 71 65 70 73 75 76 76 77 77 79 80 80 80 80 80 80 80 79 77 74 75 75 74 73 72 72 71 70 73 73 75 76 75 76 75 72 72 74 73 73 74 73 72
71 68 60 48 54 62 71 61 66 74 75 75 75 75 77 78 79 79 79 80 80 79 78 77 75 74 75 74 73 73 72 74 74 73 73 73 72 73 72 73 74 74 75 72 72 67 74 73 73
69 66 71 60 63 60 68 70 75 73 71 73 74 75 74 73 75 76 78 78 77 77 76 76 75 74 74 73 73 72 72 71 71 71 71 72 71 72 72 72 72 71 70 71 69 69 68 71 71
71 73 60 64 46 48 62 63 62 66 69 73 73 74 75 76 76 77 77 74 76 77 76 77 77 75 74 74 73 73 71 71 69 64 63 63 64 66 65 66 68 69 70 70 68 65 68 66 70
69 66 66 63 60 51 50 60 72 68 70 69 72 74 71 69 71 75 75 75 76 77 78 75 75 74 74 73 72 71 69 67 66 65 65 63 64 63 62 63 63 63 66 68 66 66 66 65 64
72 68 65 55 53 60 57 57 72 71 73 71 71 70 68 69 75 76 76 75 74 74 74 74 73 73 73 72 70 67 66 65 63 62 62 62 60 62 63 63 62 61 65 66 65 62 59 59 64

GFSSGP_sfc_temp_240.txt.gz
Temp
83 91 94 94 80 81 67 72 76 71 71 92 93 89 85 85 80 67 91 96 96 92 87 85 81 81 81 81 81 80 80 80 80 80 80 80 80 81 81 81 81 81 82 81 81 81 81 81 81
94 99 101 91 78 64 56 78 71 77 79 94 94 90 85 79 89 89 90 99 98 94 90 87 80 80 81 81 80 80 80 80 80 80 80 80 80 81 81 81 81 81 82 82 82 81 81 81 81
91 99 90 86 81 71 68 79 79 81 91 94 90 93 89 83 92 90 95 97 99 95 88 82 80 80 80 80 80 80 80 80 80 80 80 80 80 80 80 81 81 82 82 82 82 81 81 81 81
98 99 94 80 77 81 79 78 84 81 87 90 91 82 91 96 94 95 97 98 97 92 85 81 80 80 80 80 80 80 80 80 80 80 81 80 80 80 80 81 81 81 82 82 82 81 81 81 81
103 95 83 81 72 85 84 85 89 82 71 83 89 80 79 87 96 96 96 99 81 91 88 84 80 80 80 80 80 80 80 80 80 80 81 81 80 80 80 81 81 81 82 82 82 81 81 80 80
92 95 79 78 72 83 93 92 94 82 84 88 78 68 64 74 89 95 97 98 99 94 89 85 80 79 79 80 80 79 79 80 80 80 80 80 80 80 80 81 81 81 81 81 81 81 80 80 79
90 86 81 84 83 86 90 97 82 84 82 86 88 70 65 73 84 97 98 99 99 98 92 86 85 81 79 79 79 79 79 79 79 80 80 80 80 80 80 80 80 80 80 80 80 80 80 79 79
96 91 83 87 84 83 93 95 96 90 86 96 99 78 72 78 90 98 99 98 99 99 95 91 86 86 84 82 79 79 79 79 79 79 79 79 79 79 79 79 79 80 80 80 79 79 79 79 78
102 85 80 83 85 86 95 92 98 99 93 96 97 91 90 94 94 98 96 80 92 97 97 95 92 89 89 88 82 79 80 79 79 79 79 79 81 83 82 81 81 80 80 79 79 79 79 79 78
93 84 85 92 93 91 94 93 94 93 92 92 94 94 96 97 97 95 95 88 92 72 69 72 94 92 92 93 82 83 83 83 82 83 81 80 82 82 88 85 81 81 80 79 79 79 79 79 81
94 86 92 93 93 96 93 92 95 89 85 90 90 94 97 96 96 84 86 70 73 70 69 66 81 91 95 89 85 86 87 83 81 83 82 82 84 84 86 82 80 80 79 80 81 80 80 71 70
88 93 93 93 94 94 91 94 88 89 89 96 96 97 98 97 96 96 78 69 70 70 70 73 79 88 83 75 73 81 89 88 86 84 84 81 81 80 81 85 85 78 78 76 72 69 71 69 68
90 91 93 94 93 94 94 90 88 87 94 97 97 96 96 95 95 95 92 78 71 70 78 75 79 86 84 83 82 83 85 86 85 84 82 80 78 77 78 80 81 81 83 82 75 71 71 69 69
93 92 92 93 92 92 89 88 89 89 94 93 93 93 94 94 92 90 89 89 85 86 86 87 86 85 86 79 83 77 83 83 84 81 81 82 78 76 77 77 78 78 79 80 80 79 77 72 72
93 85 89 90 90 88 91 83 83 89 92 90 90 92 92 89 88 85 87 86 85 83 83 83 83 82 80 82 81 82 83 86 81 79 80 81 78 77 77 77 77 75 76 79 79 79 79 78 81
87 87 79 87 89 89 87 75 84 89 88 87 88 89 88 85 84 85 86 85 84 85 80 81 84 83 79 78 80 82 83 83 81 81 79 83 80 79 76 76 74 74 74 75 75 76 76 76 77
83 75 78 80 90 88 84 77 83 88 86 84 86 86 85 83 82 82 84 84 83 81 79 78 79 78 79 79 79 80 79 79 81 81 79 81 83 81 76 76 75 75 74 74 73 72 71 72 73
74 75 80 78 84 84 82 80 82 85 85 83 84 84 82 81 80 82 83 82 81 80 79 79 78 77 78 78 77 78 79 79 81 80 79 81 81 80 77 76 76 76 74 74 72 71 71 71 72
81 79 77 82 86 81 79 80 81 83 83 83 82 81 81 80 82 82 82 82 80 79 78 77 76 75 76 76 76 77 76 77 79 80 81 81 81 80 78 75 74 75 74 74 73 72 69 69 71
80 76 76 82 86 81 78 77 83 81 81 82 81 80 80 81 81 81 81 81 79 77 77 74 74 74 74 74 74 75 75 76 76 76 79 80 79 79 77 74 73 74 72 72 71 72 68 69 70
77 75 75 74 79 82 78 74 78 81 81 81 81 81 81 79 79 79 80 79 80 78 77 75 75 74 74 73 73 72 73 69 70 71 72 72 71 71 71 74 72 72 72 70 70 71 70 66 68
69 79 77 74 72 65 79 62 75 75 75 77 78 79 80 80 81 81 80 80 80 81 81 79 78 76 76 74 71 70 69 67 68 68 67 70 69 68 72 72 72 71 71 69 70 72 69 68 65
72 79 75 74 70 69 70 66 72 75 71 74 77 79 79 80 80 80 81 81 82 82 81 80 79 76 75 73 71 70 68 70 70 71 69 69 70 71 74 72 71 70 70 70 69 69 68 68 66
80 76 76 75 71 59 68 67 67 70 73 77 79 80 80 79 80 81 82 82 81 83 81 77 74 73 75 74 72 69 67 67 68 68 68 69 70 71 71 73 71 70 69 68 69 68 67 67 67
78 69 57 58 58 57 72 66 69 73 75 75 74 77 78 79 80 80 79 80 78 76 75 76 73 71 73 72 72 70 68 67 65 66 68 67 69 69 68 67 67 67 67 67 65 65 66 65 66
70 68 58 47 51 58 69 61 62 73 76 77 77 77 78 78 79 78 78 77 77 76 74 74 73 71 72 71 70 70 69 69 68 67 67 67 67 67 66 66 66 66 66 67 66 63 63 64 63
69 64 71 59 62 57 64 64 70 73 73 75 76 77 76 75 74 74 76 75 75 74 72 71 69 70 70 70 68 68 68 67 67 65 62 63 61 64 63 63 63 64 64 64 63 61 63 63 62
71 75 60 61 47 47 59 60 60 67 69 72 72 73 75 73 73 74 75 74 72 73 70 70 72 71 70 70 69 69 67 67 65 64 60 60 60 60 60 60 61 61 61 61 61 61 62 61 61
68 66 66 64 60 49 48 57 70 68 70 70 72 74 72 72 72 73 76 75 74 75 75 72 70 69 68 67 65 64 63 64 63 62 62 61 61 60 60 60 60 60 60 60 60 59 60 61 61
73 68 67 56 52 59 55 54 74 72 74 73 72 73 73 74 75 76 76 74 72 71 69 68 67 67 67 65 64 63 63 62 60 60 60 60 58 60 59 60 59 59 59 58 59 58 60 59 59

GFSSGP_sfc_temp_246.txt.gz
Temp
73 75 74 74 65 57 50 58 66 67 66 65 69 67 75 76 71 61 76 79 78 76 76 79 80 80 80 80 79 79 79 79 79 79 79 79 79 79 79 79 79 80 81 80 80 80 80 80 80
76 81 75 69 59 51 53 61 63 68 69 71 69 70 77 72 82 76 76 80 79 77 74 77 80 80 80 80 79 79 79 79 79 79 79 79 79 79 79 79 80 80 81 81 80 80 80 79 79
77 81 70 63 55 53 55 62 68 72 72 71 74 81 77 75 83 81 81 81 79 74 74 77 79 80 80 80 79 79 79 79 79 79 79 79 79 79 79 79 79 80 81 81 81 80 80 79 79
79 75 71 61 54 65 65 67 69 72 74 76 78 74 79 81 81 81 84 81 76 73 74 78 79 79 80 80 79 79 79 79 79 79 79 79 79 79 79 79 79 80 81 81 80 80 79 79 79
75 68 60 55 56 65 71 72 71 69 71 72 77 72 74 81 77 84 81 80 75 73 75 76 79 79 79 80 79 79 79 79 79 79 79 79 79 79 79 79 79 80 80 80 80 79 79 79 78
71 67 57 52 56 71 71 71 73 69 70 71 72 70 69 72 73 72 75 73 77 75 75 75 79 79 79 79 79 79 79 79 79 79 79 79 79 79 79 79 79 79 79 79 80 79 79 78 78
67 61 55 54 63 68 71 73 70 68 68 70 74 68 68 66 72 72 72 72 73 76 75 73 74 77 78 78 78 78 78 78 78 78 78 79 79 79 79 79 79 79 79 79 79 79 78 78 77
70 64 58 59 65 65 75 73 75 72 69 80 79 70 68 67 76 73 73 73 73 73 74 75 74 75 74 75 78 78 78 78 78 78 78 78 78 78 79 78 78 79 79 78 78 78 78 77 77
73 61 55 61 71 71 73 73 79 82 76 78 80 77 76 75 77 74 72 70 71 73 70 71 73 74 75 75 77 78 79 79 78 78 78 77 73 73 75 77 78 79 79 79 78 78 78 77 77
68 59 62 71 71 75 72 76 77 77 76 76 79 80 78 78 75 73 70 72 71 71 69 68 71 72 73 81 76 74 75 74 74 74 73 72 72 71 76 77 78 79 79 79 79 78 78 78 73
66 63 72 73 78 76 74 75 75 75 69 73 74 74 77 74 73 71 70 70 69 71 70 70 70 73 72 71 71 74 73 72 72 73 72 71 74 70 72 72 76 74 78 75 77 75 73 71 68
63 73 76 74 76 75 74 76 74 76 71 78 79 78 77 73 70 70 69 67 69 68 69 68 70 70 68 69 69 69 71 72 72 72 73 70 71 70 69 69 71 71 72 72 72 71 70 69 70
68 74 75 76 75 73 77 74 74 74 77 78 78 77 74 73 72 70 69 68 67 67 67 67 68 70 68 66 67 69 70 69 70 71 71 69 68 68 69 67 69 70 69 70 69 68 67 68 68
72 75 73 72 74 73 74 70 76 75 77 74 74 73 73 72 70 70 70 68 67 69 69 69 68 69 69 68 68 68 68 69 71 67 69 70 69 68 67 67 67 67 67 67 68 69 68 67 67
72 66 70 69 74 72 76 69 69 75 75 71 72 71 71 71 71 70 71 70 70 69 68 69 69 69 69 68 66 67 66 69 69 70 70 70 68 67 65 65 65 65 65 67 66 67 67 67 69
70 64 58 66 72 72 72 57 70 74 72 68 70 70 69 69 69 70 71 69 68 68 67 67 72 68 67 66 67 68 66 67 69 69 65 71 70 68 65 65 64 64 64 64 64 63 63 62 63
61 56 58 65 71 74 68 60 71 72 71 68 68 68 68 66 68 69 70 68 67 66 66 66 66 66 65 65 66 67 68 71 71 69 67 69 71 70 66 65 65 65 63 63 64 63 62 61 62
55 57 61 62 68 68 61 60 68 71 70 67 66 67 67 66 66 69 68 68 66 66 65 65 65 65 65 64 64 65 66 68 67 68 68 68 68 68 66 66 65 65 64 63 63 62 63 62 61
65 61 59 65 70 66 62 63 67 70 66 64 64 64 64 65 67 68 68 68 66 65 64 63 63 62 63 61 62 62 62 61 61 62 67 66 66 66 64 65 65 65 64 63 63 62 61 61 61
64 60 58 64 71 66 61 62 66 65 62 65 64 63 63 63 64 66 65 66 64 64 63 62 62 61 60 60 59 59 59 61 64 63 64 64 65 64 63 61 61 62 65 63 62 61 59 59 60
59 58 57 59 64 64 60 56 59 64 65 65 65 65 64 64 63 64 65 63 63 63 61 61 61 61 62 62 60 59 58 57 57 58 61 64 67 66 63 63 62 61 61 63 61 63 60 57 59
54 65 64 63 56 48 59 44 52 58 60 63 63 62 63 64 64 64 64 60 61 64 63 62 63 61 62 60 59 59 58 57 57 57 57 59 63 65 66 65 63 62 62 62 64 66 63 58 59
62 67 62 61 53 48 52 46 49 56 54 56 57 61 62 63 65 62 62 65 63 63 62 63 61 60 61 59 58 59 56 56 57 57 57 57 57 60 63 61 59 58 57 58 59 59 60 59 58
68 62 58 51 48 41 50 48 45 50 54 57 61 64 65 63 61 63 63 62 63 62 62 60 60 60 61 60 59 57 56 56 54 55 54 56 56 56 59 61 58 57 56 56 56 56 56 57 57
61 48 38 39 38 40 51 47 46 56 61 62 62 63 60 60 59 61 61 61 58 58 60 60 56 56 55 56 55 55 54 54 53 54 54 54 54 54 55 55 54 54 56 58 58 57 54 54 55
54 49 38 33 33 40 51 42 48 60 62 64 65 60 60 59 57 59 60 59 57 57 56 56 55 55 55 55 54 54 53 53 52 52 52 51 52 53 54 54 54 55 56 56 55 54 55 56 54
56 48 54 44 41 38 43 49 57 59 60 61 59 59 56 55 59 59 57 56 55 55 54 54 54 54 54 54 55 54 54 52 51 52 51 52 52 54 54 54 54 54 54 54 53 52 53 52 53
58 60 46 40 34 33 41 43 45 54 56 57 55 54 54 56 56 55 56 54 54 54 53 54 54 55 56 54 52 53 51 51 50 50 50 50 50 52 53 54 55 54 52 52 50 49 50 50 50
54 50 48 45 41 33 33 40 52 52 53 54 52 53 50 51 52 54 54 54 54 53 52 53 53 53 52 51 50 49 49 50 49 48 49 50 50 51 51 52 52 51 51 51 49 49 50 50 50
59 54 48 35 40 39 37 39 57 54 54 54 53 54 52 52 53 54 52 52 52 51 52 52 51 50 49 49 49 49 48 47 46 47 49 49 48 52 52 53 53 53 51 50 49 49 52 51 50